Regional Weather Roundup
Issued by NWS Mobile, AL

Home | Current Version | Previous Version | Text Only | Print | Product List | Glossary On
Versions: 1 2 3 4 5 6 7 8 9 10 11 12 13 14 15 16 17 18 19 20 21 22 23 24 25 26 27 28 29 30 31 32 33 34 35 36 37 38 39 40 41 42 43 44 45 46 47 48 49 50
000
ASUS44 KMOB 270717
RWRMOB
REGIONAL WEATHER ROUNDUP
NATIONAL WEATHER SERVICE MOBILE AL
200 AM CDT WED MAY 27 2015

ALZ061>064-270800-
COASTAL ALABAMA


CITY           SKY/WX    TMP DP  RH WIND       PRES   REMARKS
MOBILE REG APT CLOUDY    75  74  96 SE8       30.12F
BROOKLEY FIELD CLOUDY    76  74  93 E12       30.12F
GULF SHORES    CLOUDY    76  73  93 E9G16     30.11F

$$

ALZ051>060-270800-
INTERIOR SOUTHWEST AND SOUTH CENTRAL ALABAMA


CITY           SKY/WX    TMP DP  RH WIND       PRES   REMARKS
ANDALUSIA/OPP  CLOUDY    70  66  87 CALM      30.14F
EVERGREEN      PTCLDY    69  67  93 CALM      30.15F
FLORALA        CLOUDY    67  66  97 CALM      30.16F
GREENVILLE     CLOUDY    69  66  90 CALM      30.15S

$$

FLZ001>006-270800-
WESTERN FLORIDA PANHANDLE


CITY           SKY/WX    TMP DP  RH WIND       PRES   REMARKS
CRESTVIEW      CLOUDY    68  67  96 CALM      30.15F
DESTIN         CLOUDY    74  69  85 E5        30.13S
DUKE FIELD     FAIR      68  66  93 E1        30.13S
MARY ESTHER    MOCLDY    70  67  89 NE3       30.11F
MILTON         PTSUNNY   71  68  90 E3        30.13F
PENSACOLA      MOCLDY    70  70 100 NE5       30.11F
NAS PENSACOLA  CLOUDY    78  74  87 SE9       30.11S
VALPARAISO     MOCLDY    71  67  87 E3        30.13S

$$

...MARINE OBSERVATIONS...

STATION/POSITION TIME  SKY/WX   TEMP    WIND        PRES    VSBY
                                AIR SEA DIR/SP/G
                 (UTC)          (F)     (DEG/KT/KT) (MB)    (MI)
PASCAGOULA       0600            79                   N/A
PETIT BOIS ISL   0600            79                   N/A
E DAUPHIN ISLAND 0700            79     100/  9/ 10 1019.1F
MIDDLE BAY LIGHT 0600            75     100/ 10     1019.3R
USCG MOBILE BAY  0600            76                   N/A
STATE DOCKS      0600            75                   N/A
MEAHER PARK      0700            75     100/  5     1019.3F
FORT MORGAN      0600            79                   N/A
12 S ORANGE BCH  0650            79 80  130/ 10/ 12 1018.5F
WVE H/P(F/S)=  3/ 7

PENSACOLA BAY    0600            78                   N/A
64 S DAUPHIN ISL 0650            78 79   80/  8/ 10 1019.4F
WVE H/P(F/S)=  3/ 7

67 S FORT MORGAN 0630            77      90/  8     1019.0F
115 SE PENSACOLA 0650            79 81   90/ 17/ 21 1019.8F
WVE H/P(F/S)=  4/ 7

MID GULF/42001   0650            81 82  110/ 14/ 16 1017.2F
WVE H/P(F/S)=  4/ 7

EAST GULF/42003  0650            81 82  100/ 17/ 21 1017.6F
WVE H/P(F/S)=  3/ 6


$$

...NEARBY LOCATIONS

CITY           SKY/WX    TMP DP  RH WIND       PRES   REMARKS
GULFPORT       CLOUDY    76  74  93 NE3       30.09R
BILOXI         MOCLDY    79  75  89 SE8       30.09S
PASCAGOULA     PTCLDY    72  71  97 CALM      30.10F FOG
HATTIESBURG    CLOUDY    72  70  93 E3        30.12S FOG
LAUREL         PTCLDY    70 N/A N/A SE3       30.12R
MERIDIAN       CLOUDY    70  69  97 S5        30.12S
MERIDIAN NAS   FOG       72  71  97 SE5       30.12F VSB 1
MONTGOMERY     MOCLDY    68  65  90 E3        30.16F
MAXWELL AFB    CLOUDY    68  67  96 NE3       30.15F
TROY           CLOUDY    66  64  93 NE3       30.16F
FORT RUCKER    CLOUDY    67  66  97 CALM      30.15F
DALEVILLE      CLOUDY    67  66  97 E3        30.16S
DOTHAN         CLOUDY    68  67  96 E7        30.20S

$$

...OTHER SURROUNDING LOCATIONS...

CITY           SKY/WX    TMP DP  RH WIND       PRES   REMARKS
BIRMINGHAM     CLOUDY    70  67  90 S5        30.18F
TUSCALOOSA     CLOUDY    72  70  93 S8        30.13F
COLUMBUS GA    MOCLDY    66  65  96 CALM      30.18F
PANAMA CITY    NOT AVBL
TALLAHASSEE    MOCLDY    71  67  87 CALM      30.15F
BATON ROUGE    CLEAR     71  70  96 NE5       30.08R
NEW ORLEANS    PTCLDY    77  73  87 CALM      30.07S
SLIDELL        NOT AVBL
JACKSON        CLEAR     70  68  93 CALM      30.11R
MCCOMB         PTCLDY    70  69  97 CALM      30.11R

$$

...SURROUNDING MARINE OBSERVATIONS...

STATION/POSITION TIME  SKY/WX   TEMP    WIND        PRES    VSBY
                                AIR SEA DIR/SP/G
                 (UTC)          (F)     (DEG/KT/KT) (MB)    (MI)
WAVELAND         0600            77                   N/A
PASCAGOULA RGN A 0600            79                   N/A
PASCAGOULA PORT  0606               81                N/A
GRAND ISLE       0600            79                   N/A
SOUTHWEST PASS   0700            79     150/  8/  9 1018.5F
PILOT STATION E  0600            79                   N/A
SHELL BEACH      0600            78                   N/A
PANAMA CITY      0600            72                   N/A
APALACHICOLA     0600            72                   N/A
TYNDALL TOWER C  0700            77     120/ 18/ 19 1020.0F
S APLCHCLA/42036 0650            79 80  110/ 17/ 21 1019.6F
WVE H/P(F/S)=  4/ 4


$$



USA.gov is the U.S. government's official web portal to all federal, state and local government web resources and services.